Fort Campbell, KY

8:58 PM CDT on March 24, 2017 (GMT -0500)
Campbell Army Air Field

Weather History for KHOP - May, 2014

Change the Weather History Date:

Sunday, May 11, 2014

  Actual Average Record
Temperature  
Mean Temperature 74 °F -  
Max Temperature 84 °F 76 °F 87 °F (2000)
Min Temperature 65 °F 55 °F 44 °F (1997)
Cooling Degree Days 10    
Growing Degree Days 24 (Base 50)    
Moisture  
Dew Point 69 °F    
Average Humidity 80    
Maximum Humidity 100    
Minimum Humidity 58    
Precipitation  
Precipitation 0.00 in - - ()
Sea Level Pressure  
Sea Level Pressure 30.02 in    
Wind  
Wind Speed 7 mph (South)    
Max Wind Speed 13 mph    
Max Gust Speed -    
Visibility 10 miles    
Events      
Averages and records for this station are not official NWS values.
T = Trace of Precipitation, MM = Missing Value Source: NWS Daily Summary

Daily Weather History Graph

Daily Weather History Graph

Search for Another Location

Airport or City:

Trip Planner

Search our weather history database for the weather conditions in past years. The results will help you decide how hot, cold, wet, or windy it might be!

Date:

Astronomy

May. 11, 2014 Rise Set
Actual Time 5:46 AM CDT 7:47 PM CDT
Civil Twilight 5:17 AM CDT 8:15 PM CDT
Nautical Twilight 4:42 AM CDT 8:50 PM CDT
Astronomical Twilight 4:05 AM CDT 9:28 PM CDT
Moon 4:47 PM CDT (5/11) 3:45 AM CDT (5/11)
Length of Visible Light 14h 58m
Length of Day
14h 00m
Waxing Gibbous, 89% of the Moon is Illuminated
May 11
Waxing Gibbous
May 14
Full
May 21
Last Quarter
May 28
New
Jun 5
First Quarter

Hourly Weather History & Observations

Time (CDT) Temp. Heat Index Dew Point Humidity Pressure Visibility Wind Dir Wind Speed Gust Speed Precip Events Conditions
12:58 AM 68.9 °F - 68.7 °F 99% 30.00 in 10.0 mi SSE 6.9 mph - N/A   Clear
1:58 AM 68.0 °F - 68.0 °F 100% 30.01 in 10.0 mi South 5.8 mph - N/A   Clear
2:58 AM 67.6 °F - 67.6 °F 100% 30.01 in 10.0 mi SSE 4.6 mph - 0.00 in   Clear
3:58 AM 66.7 °F - 66.7 °F 100% 30.01 in 10.0 mi South 5.8 mph - 0.00 in   Clear
4:58 AM 65.8 °F - 65.8 °F 100% 30.01 in 10.0 mi South 5.8 mph - N/A   Clear
5:58 AM 65.8 °F - 65.8 °F 100% 30.04 in 10.0 mi SE 2.3 mph - N/A   Clear
6:58 AM 66.2 °F - 66.2 °F 100% 30.04 in 10.0 mi SSE 5.8 mph - N/A   Clear
7:58 AM 70.2 °F - 70.2 °F 100% 30.06 in 10.0 mi SSE 5.8 mph - N/A   Clear
8:58 AM 73.9 °F - 70.9 °F 90% 30.06 in 10.0 mi South 6.9 mph - N/A   Clear
9:58 AM 76.6 °F - 72.0 °F 85% 30.06 in 10.0 mi SE 5.8 mph - N/A   Clear
10:20 AM 77.0 °F - 71.6 °F 83% 30.07 in 10.0 mi SSE 5.8 mph - N/A   Mostly Cloudy
10:58 AM 78.6 °F - 72.0 °F 80% 30.05 in 10.0 mi SSE 8.1 mph - N/A   Mostly Cloudy
11:01 AM 78.8 °F - 71.6 °F 78% 30.06 in 10.0 mi SSW 6.9 mph - N/A   Mostly Cloudy
11:06 AM 80.6 °F 84.6 °F 71.6 °F 74% 30.06 in 10.0 mi SSE 9.2 mph - N/A   Scattered Clouds
11:17 AM 80.6 °F 84.6 °F 71.6 °F 74% 30.06 in 10.0 mi South 8.1 mph - N/A   Mostly Cloudy
11:32 AM 80.6 °F 84.6 °F 71.6 °F 74% 30.06 in 10.0 mi SSE 12.7 mph - N/A   Mostly Cloudy
11:58 AM 82.2 °F 86.2 °F 70.3 °F 67% 30.05 in 6.0 mi SSW 11.5 mph - N/A   Haze
12:58 PM 82.8 °F 86.7 °F 69.8 °F 65% 30.02 in 10.0 mi South 8.1 mph - N/A   Partly Cloudy
1:21 PM 84.2 °F 88.4 °F 69.8 °F 62% 30.03 in 10.0 mi South 11.5 mph - N/A   Light Drizzle
1:31 PM 84.2 °F 88.4 °F 69.8 °F 62% 30.03 in 10.0 mi South 10.4 mph - N/A   Scattered Clouds
1:58 PM 83.1 °F 88.1 °F 71.6 °F 68% 30.01 in 10.0 mi South 10.4 mph - 0.00 in   Partly Cloudy
4:58 PM 83.3 °F 87.1 °F 69.6 °F 63% 29.97 in 10.0 mi SSW 12.7 mph - N/A   Partly Cloudy
5:58 PM 83.5 °F 86.2 °F 67.3 °F 58% 29.96 in 10.0 mi South 9.2 mph - N/A   Clear
6:58 PM 81.7 °F 84.9 °F 68.9 °F 65% 29.96 in 10.0 mi South 6.9 mph - N/A   Clear
7:58 PM 79.9 °F - 68.9 °F 69% 29.97 in 10.0 mi South 5.8 mph - N/A   Clear
8:58 PM 78.3 °F - 68.7 °F 72% 29.98 in 10.0 mi SSE 5.8 mph - N/A   Clear
9:58 PM 76.8 °F - 68.9 °F 76% 29.99 in 10.0 mi SSE 8.1 mph - N/A   Clear
10:58 PM 76.1 °F - 68.5 °F 77% 30.00 in 10.0 mi SSE 6.9 mph - N/A   Clear
11:58 PM 75.2 °F - 68.5 °F 80% 30.01 in 10.0 mi South 6.9 mph - N/A   Clear